EN

Hourly Weather Buyavino

Today, 18 May, Tuesday

Time Temperature Precipitation Wind Pressure Humidity
00:00 +18°C° 0 mm 3 mps 742 mmHg 95%
01:00 +17°C° 0 mm 3 mps 742 mmHg 95%
02:00 +17°C° 0 mm 3 mps 742 mmHg 96%
03:00 +17°C° 0 mm 3 mps 742 mmHg 95%
04:00 +17°C° 0 mm 3 mps 742 mmHg 94%
05:00 +18°C° 0 mm 3 mps 741 mmHg 93%
06:00 +19°C° 0 mm 3 mps 742 mmHg 86%
07:00 +21°C° 0 mm 4 mps 742 mmHg 79%
08:00 +22°C° 0 mm 4 mps 742 mmHg 72%
09:00 +25°C° 0 mm 5 mps 742 mmHg 63%
10:00 +27°C° 0 mm 5 mps 742 mmHg 53%
11:00 +28°C° 0 mm 5 mps 742 mmHg 44%
12:00 +29°C° 0 mm 5 mps 742 mmHg 42%
13:00 +29°C° 0 mm 5 mps 742 mmHg 41%
14:00 +30°C° 0 mm 5 mps 742 mmHg 39%
15:00 +29°C° 0 mm 5 mps 742 mmHg 41%
16:00 +28°C° 0 mm 5 mps 741 mmHg 43%
17:00 +27°C° 0 mm 5 mps 741 mmHg 44%
18:00 +25°C° 0 mm 4 mps 741 mmHg 51%
19:00 +21°C° 0 mm 4 mps 741 mmHg 57%
20:00 +19°C° 0 mm 3 mps 741 mmHg 63%
21:00 +19°C° 0 mm 4 mps 741 mmHg 65%
22:00 +19°C° 0 mm 4 mps 741 mmHg 66%
23:00 +19°C° 0 mm 4 mps 741 mmHg 68%

Tomorrow, 19 May, Wednesday

Time Temperature Precipitation Wind Pressure Humidity
00:00 +19°C° 0 mm 4 mps 741 mmHg 75%
01:00 +18°C° 0 mm 3 mps 741 mmHg 82%
02:00 +17°C° 0 mm 3 mps 741 mmHg 89%
03:00 +17°C° 0.1 mm 3 mps 740 mmHg 90%
04:00 +17°C° 0.1 mm 3 mps 740 mmHg 90%
05:00 +17°C° 0.1 mm 3 mps 740 mmHg 91%
06:00 +18°C° 0.1 mm 4 mps 740 mmHg 86%
07:00 +20°C° 0.1 mm 4 mps 741 mmHg 81%
08:00 +21°C° 0.1 mm 5 mps 741 mmHg 76%
09:00 +21°C° 0.3 mm 5 mps 741 mmHg 71%
10:00 +22°C° 0.3 mm 5 mps 741 mmHg 66%
11:00 +22°C° 0.3 mm 6 mps 741 mmHg 61%
12:00 +23°C° 0 mm 5 mps 741 mmHg 57%
13:00 +25°C° 0 mm 5 mps 741 mmHg 53%
14:00 +26°C° 0 mm 5 mps 741 mmHg 48%
15:00 +25°C° 0 mm 4 mps 741 mmHg 51%
16:00 +25°C° 0 mm 4 mps 741 mmHg 54%
17:00 +24°C° 0 mm 3 mps 741 mmHg 57%
18:00 +21°C° 0.1 mm 3 mps 741 mmHg 67%
19:00 +19°C° 0.1 mm 2 mps 741 mmHg 76%
20:00 +17°C° 0.1 mm 2 mps 742 mmHg 86%
21:00 +17°C° 0 mm 2 mps 741 mmHg 88%
22:00 +16°C° 0 mm 1 mps 741 mmHg 91%
23:00 +15°C° 0 mm 1 mps 741 mmHg 93%

Day after tomorrow, 20 May, Thursday

Time Temperature Precipitation Wind Pressure Humidity
00:00 +15°C° 0.2 mm 2 mps 741 mmHg 94%
01:00 +15°C° 0.2 mm 2 mps 740 mmHg 95%
02:00 +15°C° 0.2 mm 2 mps 740 mmHg 96%
03:00 +15°C° 0.1 mm 2 mps 740 mmHg 96%
04:00 +16°C° 0.1 mm 2 mps 740 mmHg 96%
05:00 +16°C° 0.1 mm 2 mps 740 mmHg 96%
06:00 +17°C° 0 mm 3 mps 739 mmHg 90%
07:00 +19°C° 0 mm 4 mps 739 mmHg 84%
08:00 +20°C° 0 mm 4 mps 739 mmHg 79%
09:00 +20°C° 0.3 mm 5 mps 739 mmHg 75%
10:00 +20°C° 0.3 mm 5 mps 739 mmHg 72%
11:00 +20°C° 0.3 mm 5 mps 738 mmHg 68%
12:00 +20°C° 0.2 mm 6 mps 738 mmHg 65%
13:00 +20°C° 0.2 mm 6 mps 738 mmHg 63%
14:00 +20°C° 0.2 mm 6 mps 738 mmHg 60%
15:00 +19°C° 0.2 mm 6 mps 738 mmHg 64%
16:00 +17°C° 0.2 mm 6 mps 738 mmHg 68%
17:00 +17°C° 0.2 mm 6 mps 738 mmHg 73%
18:00 +15°C° 0.1 mm 6 mps 738 mmHg 77%
19:00 +14°C° 0.1 mm 6 mps 738 mmHg 81%
20:00 +13°C° 0.1 mm 6 mps 738 mmHg 85%
21:00 +12°C° 0 mm 5 mps 738 mmHg 86%
22:00 +12°C° 0 mm 5 mps 738 mmHg 88%
23:00 +10°C° 0 mm 5 mps 738 mmHg 89%

21 May, Friday

Time Temperature Precipitation Wind Pressure Humidity
00:00 +11°C° 0 mm 4 mps 738 mmHg 89%
01:00 +11°C° 0 mm 4 mps 738 mmHg 90%
02:00 +11°C° 0 mm 4 mps 738 mmHg 91%
03:00 +10°C° 0.1 mm 4 mps 739 mmHg 90%
04:00 +10°C° 0.1 mm 4 mps 740 mmHg 90%
05:00 +10°C° 0.1 mm 4 mps 740 mmHg 90%
06:00 +10°C° 0 mm 4 mps 741 mmHg 88%
07:00 +10°C° 0 mm 4 mps 742 mmHg 87%
08:00 +10°C° 0 mm 4 mps 742 mmHg 86%
09:00 +12°C° 0 mm 4 mps 743 mmHg 76%
10:00 +13°C° 0 mm 4 mps 744 mmHg 67%
11:00 +15°C° 0 mm 5 mps 744 mmHg 57%
12:00 +16°C° 0 mm 5 mps 745 mmHg 50%
13:00 +18°C° 0 mm 4 mps 745 mmHg 43%
14:00 +19°C° 0 mm 4 mps 745 mmHg 36%
15:00 +19°C° 0 mm 4 mps 745 mmHg 39%
16:00 +18°C° 0 mm 3 mps 745 mmHg 43%
17:00 +18°C° 0 mm 3 mps 746 mmHg 46%
18:00 +16°C° 0 mm 3 mps 746 mmHg 54%
19:00 +14°C° 0 mm 2 mps 746 mmHg 62%
20:00 +12°C° 0 mm 2 mps 747 mmHg 71%
21:00 +12°C° 0 mm 2 mps 747 mmHg 73%
22:00 +10°C° 0 mm 2 mps 747 mmHg 76%
23:00 +9°C° 0 mm 2 mps 748 mmHg 79%

22 May, Saturday

Time Temperature Precipitation Wind Pressure Humidity
00:00 +8°C° 0 mm 2 mps 748 mmHg 81%
01:00 +9°C° 0 mm 1 mps 748 mmHg 84%
02:00 +8°C° 0 mm 1 mps 748 mmHg 86%
03:00 +9°C° 0 mm 1 mps 748 mmHg 83%
04:00 +9°C° 0 mm 1 mps 749 mmHg 80%
05:00 +10°C° 0 mm 1 mps 749 mmHg 78%
06:00 +12°C° 0 mm 1 mps 749 mmHg 69%
07:00 +14°C° 0 mm 1 mps 749 mmHg 61%
08:00 +15°C° 0 mm 0 mps 749 mmHg 53%
09:00 +18°C° 0 mm 1 mps 749 mmHg 48%
10:00 +19°C° 0 mm 1 mps 749 mmHg 44%
11:00 +19°C° 0 mm 2 mps 748 mmHg 39%
12:00 +19°C° 0 mm 2 mps 748 mmHg 38%
13:00 +20°C° 0 mm 2 mps 748 mmHg 36%
14:00 +20°C° 0 mm 2 mps 748 mmHg 35%
15:00 +20°C° 0 mm 2 mps 748 mmHg 38%
16:00 +20°C° 0 mm 2 mps 748 mmHg 41%
17:00 +19°C° 0 mm 2 mps 748 mmHg 44%
18:00 +17°C° 0 mm 2 mps 748 mmHg 52%
19:00 +15°C° 0 mm 2 mps 748 mmHg 60%
20:00 +13°C° 0 mm 1 mps 748 mmHg 68%
21:00 +12°C° 0 mm 1 mps 748 mmHg 69%
22:00 +12°C° 0 mm 2 mps 748 mmHg 71%
23:00 +10°C° 0 mm 2 mps 748 mmHg 73%

23 May, Sunday

Time Temperature Precipitation Wind Pressure Humidity
00:00 +10°C° 0 mm 2 mps 748 mmHg 77%
01:00 +10°C° 0 mm 2 mps 748 mmHg 81%
02:00 +9°C° 0 mm 2 mps 748 mmHg 86%
03:00 +10°C° 0 mm 2 mps 748 mmHg 86%
04:00 +10°C° 0 mm 2 mps 748 mmHg 86%
05:00 +12°C° 0 mm 2 mps 747 mmHg 86%
06:00 +13°C° 0 mm 3 mps 747 mmHg 79%
07:00 +14°C° 0 mm 3 mps 746 mmHg 72%
08:00 +15°C° 0 mm 4 mps 746 mmHg 65%
09:00 +17°C° 0 mm 4 mps 745 mmHg 62%
10:00 +18°C° 0 mm 4 mps 745 mmHg 58%
11:00 +19°C° 0 mm 5 mps 744 mmHg 55%
12:00 +19°C° 0 mm 5 mps 744 mmHg 55%
13:00 +20°C° 0 mm 5 mps 743 mmHg 55%
14:00 +20°C° 0 mm 5 mps 743 mmHg 55%
15:00 +20°C° 0 mm 5 mps 742 mmHg 58%
16:00 +20°C° 0 mm 5 mps 742 mmHg 62%
17:00 +19°C° 0 mm 5 mps 742 mmHg 65%
18:00 +17°C° 0.8 mm 5 mps 742 mmHg 74%
19:00 +15°C° 0.8 mm 5 mps 742 mmHg 82%
20:00 +14°C° 0.8 mm 5 mps 742 mmHg 91%
21:00 +13°C° 0 mm 4 mps 742 mmHg 92%
22:00 +12°C° 0 mm 4 mps 743 mmHg 93%
23:00 +11°C° 0 mm 3 mps 744 mmHg 94%
Show more

We Need Your Consent

Meteoprog and our Service Providers may store and access personal data such as cookies, device identifiers or other similar technologies on your device and process such data to personalise content and ads, as well as provide social media features and to analyse the traffic.

  • Store and/or access information on your device

    Cookies, device identifiers or other information can be stored or accessed on your device for the purposes indicated above.

  • Personalised ads and content, ad and content measurement, audience insights, and products development

    Ads and content can be personalised based on a profile. More data can be added to better personalise ads and content. Ad and content performance can be measured. Insights about the audience who saw the ads and content can be derived. Such data can be used to develop or improve user’s experience, systems and software.

By clicking ‘I Agree’ you will allow the use of indicated cookies, device identifiers, web beacons or other similar technologies. Your settings can be changed in the browser on your device.

For certain purposes, legitimate interests may be relied on, rather than consent. You can read more about this in our Privacy and Cookie Policy.